User: anonymous   Login
Location: Unspecified
(0.0000°N, 0.0000°E)
Time: 09:35:39
(UTC+00:00)
Language:

GONETS M 12 (M22) - Orbit

View from above orbital plane
View from above orbital plane
View from above satellite
View from above satellite

Ground track
Ground track

The orbit data is extracted from the following two-line orbital elements,

1 40553U 15020B   18018.44320596  .00000021  00000-0  79115-4 0  9996
2 40553  82.4902 145.1423 0014102 202.3755 157.6707 12.42870649127181
Epoch (UTC): 18 January 2018 10:38:12
Eccentricity: 0.0014102
inclination: 82.4902°
perigee height: 1483 km
apogee height: 1505 km
right ascension of ascending node: 145.1423°
argument of perigee: 202.3755°
revolutions per day: 12.42870649
mean anomaly at epoch: 157.6707°
orbit number at epoch: 12718

The dashed part of the orbit path shows where the satellite is in the earth's shadow,  

DLR